Погода в Майами

США     25°47′32″N   80°15′03″W
темп.,
°C
ветер,
м/с
пор.,
м/с
влажн.,
%
обл.,
%
осадки,
мм/ч
давл.,
гПа
погр.,
м
15 мая, сб
сб1523:00+26св67711 0.2 1018926
02:00+26св556988 0.2 10171078
05:00+26ссв566898 0.4 1017711
08:00+26ссв67622 0.6 10191114
11:00+28св875631 0.1 10201592
14:00+27св985943 0.1 10191134
17:00+27св10105897 0.0 10181354
20:00+25св10116599 0.0 1018997
16 мая, вс
вс1623:00+26всв896392 0.0 10191295
02:00+25всв7762100 0.0 10181334
05:00+25св6665100 0.4 1018959
08:00+25св6766100 1.1 10201008
11:00+26всв875962 0.6 10211383
14:00+27всв875765 0.8 10201556
17:00+26св886194 0.5 10191372
20:00+25св996193 0.9 10201426
17 мая, пн
пн1723:00+25всв8859100 0.0 10201425
02:00+25всв6653100 0.0 10181524
05:00+24всв6656100 0.0 10181360
08:00+24всв6654100 0.0 10191346
11:00+26всв764998 0.0 10201669
14:00+27всв764786 0.0 10191613
17:00+27всв77480 0.0 10181582
20:00+26всв77535 0.0 10181674
18 мая, вт
вт1823:00+26всв785395 0.0 10191623
02:00+25всв6656100 0.0 10181491
05:00+25всв5656100 0.0 10171452
08:00+26всв6656100 0.0 10181250
11:00+27всв665243 0.0 10191445
14:00+27всв886157 0.1 10181300
17:00+27всв886089 0.7 10171391
20:00+27всв885999 0.9 10171433
19 мая, ср
ср1923:00+27всв785675 0.0 10181500
02:00+26в895782 0.1 10171479
05:00+26в89585 0.0 10161482
08:00+26в8105797 0.0 10181368
11:00+28в895119 0.0 10191395
14:00+29в885388 0.0 10181621
17:00+28всв8858100 0.1 10171628
20:00+27всв896099 0.2 10181487